This demonstration page uses our WeatherBlox Daily Observations layout. Learn more.

Left ArrowRight Arrow

40.92501, -98.34201

Hourly Observations for August 9, 2022

Temp ( °F °C ) Dew Point ( °F °C ) Humidity (%) Winds ( mph kmh ) Pressure ( in mb ) Visibility ( mi km ) Precip ( " mm )
12:53 am 00:53 Clear 63 17.2 58 14.4 84 84 SE 3 6 30.13 1020 10 16 0.00 0.00
1:53 am 01:53 Clear 61 16.1 56 13.3 83 83 SW 5 7 30.12 1020 10 16 0.00 0.00
2:53 am 02:53 Clear 60 15.6 56 13.3 86 86 Calm 30.11 1020 10 16 0.00 0.00
3:53 am 03:53 Clear 60 15.6 56 13.3 86 86 Calm 30.11 1020 10 16 0.00 0.00
4:53 am 04:53 Clear 60 15.6 55 12.8 83 83 Calm 30.10 1019 10 16 0.00 0.00
5:53 am 05:53 Clear 59 15 55 12.8 87 87 E 7 11 30.10 1019 10 16 0.00 0.00
6:53 am 06:53 Sunny 58 14.4 55 12.8 90 90 Calm 30.11 1020 8 13 0.00 0.00
7:53 am 07:53 Sunny 64 17.8 58 14.4 80 80 SSE 6 9 30.12 1020 10 16 0.00 0.00
8:53 am 08:53 Sunny 68 20 60 15.6 76 76 S 7 11 30.14 1021 10 16 0.00 0.00
9:53 am 09:53 Sunny 73 22.8 61 16.1 66 66 S 9 15 30.14 1021 10 16 0.00 0.00
10:53 am 10:53 Sunny 77 25 63 17.2 62 62 S 10 17 30.14 1021 10 16 0.00 0.00
11:53 am 11:53 Sunny 80 26.7 62 16.7 54 54 SSW 8 13 30.14 1021 10 16 0.00 0.00
12:53 pm 12:53 Sunny 82 27.8 62 16.7 51 51 SSW 8 13 30.12 1020 10 16 0.00 0.00
1:53 pm 13:53 Sunny 85 29.4 60 15.6 43 43 SSW 7 11 30.11 1020 10 16 0.00 0.00
2:53 pm 14:53 Sunny 85 29.4 61 16.1 45 45 SSE 9 15 30.10 1019 10 16 0.00 0.00
3:53 pm 15:53 Sunny 87 30.6 62 16.7 43 43 SSE 12 19 30.08 1019 10 16 0.00 0.00
4:53 pm 16:53 Sunny 88 31.1 63 17.2 43 43 S 12 19 30.06 1018 10 16 0.00 0.00
5:53 pm 17:53 Sunny 88 31.1 63 17.2 43 43 S 8 13 30.05 1018 10 16 0.00 0.00
6:53 pm 18:53 Sunny 85 29.4 65 18.3 51 51 SSE 9 15 30.04 1017 10 16 0.00 0.00
7:53 pm 19:53 Sunny 82 27.8 66 18.9 58 58 SSE 8 13 30.04 1017 10 16 0.00 0.00
8:53 pm 20:53 Clear 77 25 65 18.3 66 66 ESE 5 7 30.06 1018 10 16 0.00 0.00
9:53 pm 21:53 Clear 73 22.8 64 17.8 73 73 SSE 5 7 30.09 1019 10 16 0.00 0.00
10:53 pm 22:53 Clear 73 22.8 65 18.3 76 76 SE 6 9 30.10 1019 10 16 0.00 0.00
11:53 pm 23:53 Clear 71 21.7 64 17.8 79 79 S 6 9 30.11 1020 10 16 0.00 0.00

Powered by AerisWeather